الصفحة الرئيسية
METAR-TAF:

METAR-TAF

مطار :

Emerald, أستراليا

دائرة عرض: 23-34-03S, خط طول: 148-10-45E, ارتفاع: 190 متر

مراقبة الطقس الحالي

تاريخ ووقت الإصدار 1ساعة و 12 دقيقة قبل الساعة 22:00UTC
ريح 6 عقدة من الشرق
درجة الحرارة 26°درجة مئوية
الرطوبة 61%
ضغط 1008 hPa
الرؤية 10 كم أو أكثر

METAR: YEML 052200Z AUTO 09006KT 9999 // NCD 26/18 Q1008

زمن: 09:12 (23:12 UTC)


TAF: مفقودة

أرصاد الطقس والتوقعات من أكثر من 4000 مطار (تقارير الطقس للمطار METAR والتنبؤ بالطقس بالمطارTAF).

المحطات المتاحة هي النقط الصفراء والحمراء على الخريطة.

حرك المؤشر فوق النقطة لمعرفة اسم المحطة.

ثم انقر لمعرفة أرصاد وتوقعات الطقس.

لتغيير الخارطة: اضغط على الأزرار الخضراء مع رمز الصليب الأسود للتكبير. على الزر الأخضر مع شرطة للتصغير، أو على الأسهم الخضراء للخرائط المجاورة.


METAR-TAF: